Location: *
(36.7806°N, 7.1708°E)
Time: 18:05:23
(UTC+00:00)

Daily predictions for brighter satellites

Satellite Brightness Start Highest point End
(mag) Time Altitude Azimuth Time Altitude Azimuth Time Altitude Azimuth
Cosmos 2082 3.8 19:12:40 10° NNW 19:18:26 79° ENE 19:24:08 10° SSE
Cosmos 2016 Rocket 4.2 19:12:45 10° S 19:19:01 84° W 19:25:23 10° N
ARGOS 3.6 19:14:39 10° SE 19:19:48 46° ENE 19:24:57 10° N
Cosmos 1703 3.4 19:17:07 10° S 19:21:05 83° W 19:25:03 10° N
Cosmos 1331 Rocket 4.4 19:18:28 10° N 19:23:36 48° ENE 19:28:41 10° SE
H-2A R/B 2.4 19:20:14 10° SSE 19:25:31 54° ENE 19:30:47 10° N
Cosmos 2263 Rocket 4.1 19:22:55 10° NNE 19:26:15 16° NE 19:29:35 10° E
Cosmos 2061 Rocket 4.5 19:20:18 10° SSW 19:26:30 67° W 19:32:41 10° N
Cosmos 1725 Rocket 4.1 19:22:57 10° S 19:29:13 90° WNW 19:35:33 10° N
Cosmos 2084 3.6 19:25:41 10° SSW 19:30:10 57° ESE 19:34:34 10° NE
USA 267 4.1 19:26:50 10° E 19:32:51 41° NE 19:38:53 10° NNW
BREEZE-M DEB (TANK) 3.9 19:29:17 10° WNW 19:33:22 30° SW 19:35:27 10° SSE
Cosmos 1269 Rocket 4.4 19:29:35 10° SSW 19:34:50 69° WNW 19:40:08 10° NNE
Resurs 01 Rocket 2.0 19:32:02 10° SSE 19:36:17 47° ENE 19:40:33 10° N
Meteor 1-11 4.5 19:34:33 10° SSW 19:40:18 78° W 19:46:08 10° N
Cosmos 44 3.5 19:35:32 10° SSW 19:40:47 61° ESE 19:45:52 10° NE
Cosmos 2346 Rocket 4.4 19:34:46 10° N 19:40:51 85° E 19:46:54 10° S
Aureole 1 Rocket 4.1 19:39:03 10° SSE 19:42:45 30° E 19:47:26 10° NE
BREEZE-M DEB (TANK) 3.5 19:39:08 10° NW 19:42:46 85° NE 19:54:09 13° SE
SJ-6B 4.0 19:41:12 10° S 19:44:45 39° W 19:48:16 10° NNW
IRIDIUM 104 4.4 19:44:37 10° N 19:49:48 61° E 19:54:56 10° SSE
Cosmos 2233 Rocket 4.0 19:43:40 10° S 19:49:56 84° E 19:56:17 10° N
H-2A ROCKET BODY 4.3 18:57:50 10° W 19:51:55 61° SSW 19:59:07 15° ESE
Meteor 2-10 Rocket 3.9 19:48:36 10° NNW 19:54:04 73° W 19:59:43 10° S
Cosmos 2251 Rocket 3.8 19:49:35 10° S 19:54:35 46° ESE 19:59:35 10° NNE
IRIDIUM 114 4.3 19:53:43 10° N 19:58:57 76° E 20:04:08 10° S
Tiangong 2 3.1 20:02:00 10° WNW 20:04:42 26° N 20:07:23 10° ENE
Meteor 1-27 4.4 19:58:54 10° NNW 20:04:46 79° W 20:10:34 10° S
Cosmos 2360 Rocket 3.6 20:05:53 17° ESE 20:06:48 18° E 20:10:27 10° ENE
Cosmos 1340 Rocket 3.5 20:03:55 10° N 20:07:46 39° ENE 20:09:43 24° SE
Meteor 2-2 Rocket 4.2 20:02:11 10° N 20:07:49 88° W 20:13:19 11° S
IRIDIUM 103 4.3 20:02:49 10° N 20:08:03 88° W 20:13:16 10° S
Cosmos 1302 Rocket 4.0 20:04:12 10° NNW 20:09:24 66° ENE 20:12:57 20° SSE
Cosmos 1869 3.6 20:05:44 10° N 20:09:34 46° E 20:11:34 24° SE
Cosmos 1980 Rocket 3.4 20:05:49 10° SW 20:11:11 46° WNW 20:16:35 10° N
CZ-2C R/B 3.1 20:07:52 15° SSE 20:12:29 75° ENE 20:17:46 10° N
Gbstr 26 Del rocket 3.3 20:09:17 10° WSW 20:13:28 60° NW 20:17:14 10° NE
ERBS 3.0 20:14:24 10° NNW 20:17:34 41° NE 20:18:46 29° E
ERS-1 Rocket 4.0 20:17:30 21° ESE 20:19:46 31° ENE 20:24:09 10° N
ISS -1.6 20:16:45 10° SSW 20:17:24 14° SSW 20:17:24 14° SSW
Cosmos 1151 Rocket 4.3 20:17:31 10° NNE 20:21:11 25° ENE 20:22:16 23° E
Cosmos 1238 Rocket 4.2 20:16:13 15° SSE 20:21:29 58° E 20:28:00 10° NNE
MetOp-A 4.4 20:17:07 12° S 20:22:01 68° WSW 20:27:21 10° NNW
Cosmos 2221 4.2 20:19:30 10° NNW 20:23:23 31° W 20:27:15 10° SSW
Cosmos 2058 3.3 20:20:01 10° SSW 20:24:09 65° W 20:28:20 10° N
Cosmos 1242 Rocket 2.5 20:22:30 28° S 20:24:15 63° E 20:27:53 10° NNE
Iridium 4 Rocket 4.0 20:21:10 10° N 20:26:59 56° E 20:30:16 25° SSE
Cosmos 2322 Rocket 2.1 20:29:04 10° SSW 20:34:43 73° ESE 20:40:25 10° NNE
DELTA 2 R/B (1) 3.9 20:30:59 10° SW 20:36:13 43° SSE 20:39:43 20° E
Okean 3 Rocket 4.2 20:32:15 10° SSW 20:36:43 57° W 20:41:12 10° N
SL-16 R/B 2.1 20:32:47 10° SSW 20:38:27 89° ESE 20:44:09 10° NNE
Cosmos 1464 Rocket 3.9 20:33:20 15° S 20:38:44 80° E 20:45:00 10° N
Spot 2 Rocket 3.8 20:37:18 20° S 20:40:45 63° WSW 20:45:50 10° NNW
CZ-2C R/B 2.4 20:37:46 10° NNE 20:43:01 80° ESE 20:46:28 22° S
Cosmos 1461 2.9 20:39:16 10° NNW 20:43:11 58° ENE 20:44:03 46° ESE
Centaur D-1AR AC-48 3.9 20:30:14 10° WSW 20:43:39 26° SSW 20:45:41 22° S
ADEOS Rocket 3.8 20:40:39 10° N 20:45:58 44° WNW 20:51:08 10° SW
Cosmos 371 Rocket 3.7 20:42:04 10° NNW 20:46:52 59° WSW 20:49:15 28° S
Cosmos 1408 3.5 20:52:46 34° ENE 20:52:46 34° ENE 20:55:33 10° NNE
Cosmos 1743 Rocket 3.8 20:52:27 45° ESE 20:52:47 46° E 20:56:58 10° NNE
Cosmos 1825 3.6 20:54:50 25° ENE 20:54:50 25° ENE 20:57:06 10° NNE
USA 245 4.2 20:57:37 27° NNW 20:57:37 27° NNW 20:58:48 10° NNW
Terra 2.6 20:56:43 32° E 20:57:26 34° ENE 21:01:43 10° N
EO 1 Del DPAF 3.9 20:54:26 10° N 20:58:09 53° WNW 21:00:02 26° SW
Cosmos 332 Rocket 4.3 20:53:35 10° NNW 20:58:15 53° WSW 21:00:10 32° SSW
Cosmos 1900 4.5 20:57:41 45° SSE 20:58:43 53° ESE 21:03:44 10° NE
Cosmos 2151 4.1 21:00:57 18° SW 21:03:49 42° W 21:07:54 10° N
Cosmos 1515 Rocket 3.5 21:02:14 10° N 21:06:33 61° E 21:06:48 60° E
Cosmos 2237 4.3 21:05:43 46° SE 21:06:50 53° ESE 21:12:21 10° NNE
Cosmos 1844 Rocket 4.3 21:02:54 10° N 21:07:13 22° ENE 21:08:49 19° E
Cosmos 2263 Rocket 2.2 21:05:06 10° NNW 21:10:48 75° WSW 21:12:37 44° S
Cosmos 44 Rocket 3.6 21:07:32 10° SW 21:12:40 70° WNW 21:17:45 10° NNE
Resurs 01 Rocket 4.2 21:10:44 10° WSW 21:12:59 14° W 21:15:14 10° WNW
Cosmos 1408 Rocket 4.5 21:11:54 25° SW 21:14:00 43° W 21:18:07 10° N
USA 267 3.5 21:13:12 37° S 21:15:39 58° SW 21:22:06 10° NW
Cosmos 2228 Rocket 3.3 21:12:00 10° N 21:16:28 55° E 21:16:30 55° E
APEX 4.5 21:14:13 38° S 21:16:47 71° ESE 21:23:51 10° NNE
Cosmos 1892 4.0 21:16:04 29° WSW 21:17:21 38° W 21:20:58 10° N
Cosmos 304 Rocket 3.8 21:13:04 10° NNW 21:17:53 73° WSW 21:18:41 59° SSW
IGS 5A 3.6 21:23:06 63° WSW 21:23:20 65° W 21:27:29 10° NNW
NOSS 3-1 (C) 3.6 21:24:07 45° E 21:24:07 45° E 21:29:14 10° NE
COSMOS 2428 4.0 21:26:54 25° ENE 21:26:54 25° ENE 21:30:19 10° NE
Landsat 4 4.1 21:24:05 10° N 21:27:09 58° N 21:27:09 58° N
SPOT 5 3.1 21:28:31 57° SSW 21:29:28 73° WSW 21:34:30 10° NNW
USA 81 4.1 21:24:40 10° N 21:29:54 59° E 21:30:09 59° E
Thor Agena Rocket 4.4 21:27:20 10° N 21:32:08 46° WNW 21:34:56 23° SW
Meteor 2-11 Rocket 4.3 21:32:28 52° S 21:34:04 89° ESE 21:40:11 10° N
CARTOSAT-1 3.8 21:35:53 62° W 21:35:53 62° W 21:40:07 10° NNW
Cosmos 1933 3.8 21:31:55 10° N 21:35:13 56° NNE 21:35:13 56° NNE
Celestis-02/Orion 38 4.5 21:35:22 69° SSE 21:36:04 88° ENE 21:41:23 10° NNW
Tiangong 2 3.5 21:38:54 10° NW 21:40:26 23° NW 21:40:26 23° NW
Cosmos 407 Rocket 3.4 21:41:32 68° SSW 21:42:12 84° WNW 21:47:34 10° NNE
Cosmos 1190 Rocket 3.8 21:44:58 80° SW 21:45:15 87° WNW 21:50:29 10° NNE
ASTEX 1 3.5 21:42:20 10° N 21:46:55 66° ENE 21:46:55 66° ENE
Cosmos 1627 Rocket 4.4 21:42:37 10° N 21:48:45 69° E 21:49:25 64° ESE
Cosmos 1140 Rocket 3.6 21:49:29 63° ENE 21:49:29 63° ENE 21:54:03 10° NNE
Cosmos 921 Rocket 3.9 21:45:21 10° NNW 21:49:02 40° W 21:49:02 40° W
Cosmos 2237 Rocket 4.4 21:52:28 12° ENE 21:52:28 12° ENE 21:53:15 10° ENE
Cosmos 2360 Rocket 2.7 21:47:33 29° SW 21:50:17 55° WNW 21:55:49 10° NNE
BREEZE-M DEB (TANK) 4.4 21:43:12 10° NW 21:55:05 36° WSW 21:56:00 34° SW
ISS -1.0 21:58:12 17° NNE 21:58:12 17° NNE 21:59:19 10° NNE
ERS-1 Rocket 4.4 21:57:30 25° WSW 21:58:29 27° W 22:02:44 10° NW
USA 229 DEB 3.7 21:56:03 32° SW 21:59:19 75° NW 22:06:08 10° NNE
USA 229 3.7 21:56:15 33° SW 21:59:24 76° WNW 22:06:14 10° NNE
Meteor 2-3 Rocket 3.9 21:59:45 61° SW 22:00:36 71° W 22:06:25 10° N
NOSS 3-1 (A) 3.6 22:03:50 49° ENE 22:03:50 49° ENE 22:08:35 10° NE
Mayak 0.1 21:58:56 10° NNE 22:01:25 33° NE 22:01:25 33° NE
Cosmos 2279 Rocket 3.9 22:04:03 68° ESE 22:04:12 68° E 22:10:20 10° NNE
Cosmos 1606 4.2 22:00:31 10° N 22:02:46 34° NNW 22:02:46 34° NNW
Meteor 1-26 Rocket 4.1 22:00:34 10° N 22:06:13 81° W 22:06:16 80° WSW
Sich 1 4.1 22:08:45 40° NNE 22:08:45 40° NNE 22:11:34 10° N
Cosmos 614 Rocket 4.5 22:08:33 50° W 22:09:00 52° WNW 22:13:58 10° N
MOS 1 Rocket 4.4 22:10:37 10° N 22:14:42 36° WNW 22:14:59 36° W
Cosmos 2333 4.2 22:14:43 72° W 22:15:01 74° WNW 22:20:44 10° NNE
Cosmos 2333 Rocket 2.3 22:17:26 65° NE 22:17:26 65° NE 22:22:23 10° NNE
Cosmos 1092 Rocket 4.5 22:10:57 10° NNW 22:16:56 50° W 22:17:54 46° WSW
Cosmos 2219 Rocket 2.3 22:23:07 72° NNE 22:23:07 72° NNE 22:28:12 10° NNE
DELTA 2 R/B (1) 4.3 22:16:54 10° W 22:20:38 43° W 22:20:38 43° W
Cosmos 1428 Rocket 4.4 22:20:19 10° N 22:26:34 75° W 22:26:49 74° WSW
Helios 1B rocket 4.4 22:23:15 10° NNE 22:24:58 23° NE 22:24:58 23° NE
Cosmos 2278 Rocket 3.7 22:24:56 10° N 22:29:36 26° ENE 22:30:04 25° ENE
SeaSat 1 3.1 22:25:20 10° NNE 22:28:52 48° NE 22:28:52 48° NE
ATLAS CENTAUR R/B 4.4 22:30:03 10° NNE 22:30:42 10° NE 22:31:19 10° NE
Terra 3.7 22:35:37 21° W 22:35:37 21° W 22:38:51 10° NW
Cosmos 1655 Rocket 3.9 22:35:15 10° N 22:41:19 84° NNE 22:41:19 84° NNE
SL-4 R/B 3.5 22:44:46 41° NNW 22:44:46 41° NNW 22:49:01 10° NE
Meteor 1-10 Rocket 4.4 22:40:58 10° N 22:45:53 68° NNE 22:45:53 68° NNE
Cosmos 1607 4.0 22:40:30 10° NNW 22:46:25 72° NE 22:46:25 72° NE
Cosmos 1844 Rocket 3.4 22:45:54 10° NNW 22:50:28 46° WNW 22:50:28 46° WNW
NOSS 0 Rocket 4.0 23:04:29 74° N 23:04:29 74° N 23:10:04 10° NNE
ALOS 2 4.1 23:07:55 34° N 23:07:55 34° N 23:10:25 10° NNW
COSMOS 2428 3.8 23:08:52 35° WNW 23:09:34 36° WNW 23:14:50 10° N
SL-16 R/B 3.7 23:15:58 26° ENE 23:15:58 26° ENE 23:19:00 10° NE
Cosmos 1980 4.1 23:26:06 58° NNW 23:26:06 58° NNW 23:30:57 10° NNE
Cosmos 2237 Rocket 2.7 23:34:16 55° NNW 23:34:16 55° NNW 23:39:03 10° NNE
Mayak 1.6 23:37:12 10° NW 23:38:00 11° WNW 23:38:00 11° WNW
Meteor 1-27 Rocket 4.4 23:33:15 10° NNW 23:38:02 52° NW 23:38:02 52° NW
Cosmos 1553 Rocket 4.3 23:47:38 55° ENE 23:47:38 55° ENE 23:52:53 10° NNE
Lacrosse 5 4.5 23:47:14 10° N 23:50:32 17° NNE 23:53:51 10° ENE
